This demonstration page uses our WeatherBlox Daily Observations layout. Learn more.

Left ArrowRight Arrow

39.12711, -84.51439

Hourly Observations for June 4, 2017

Temp ( °F °C ) Dew Point ( °F °C ) Humidity (%) Winds ( mph kmh ) Pressure ( in mb ) Visibility ( mi km ) Precip ( " mm )
12:53 am 00:53 Clear 62 16.7 60 15.6 93 93 Calm 30.02 1017 10 16 0.00 0.00
1:53 am 01:53 Clear 60 15.6 59 15 96 96 Calm 30.02 1017 10 16 0.00 0.00
2:53 am 02:53 Clear 59 15 59 15 100 100 Calm 30.00 1016 10 16 0.00 0.00
3:53 am 03:53 Clear 58 14.4 58 14.4 100 100 Calm 29.99 1016 9 14 0.00 0.00
4:41 am 04:41 Clear with Mist and Fog 55 12.8 55 12.8 100 100 Calm 30.00 1016 2 2 0.00 0.00
4:53 am 04:53 Clear with Mist and Fog 56 13.3 56 13.3 100 100 Calm 29.98 1015 5 8 0.00 0.00
5:28 am 05:28 Clear with Mist and Fog 57 13.9 57 13.9 100 100 Calm 30.00 1016 2 3 0.00 0.00
5:38 am 05:38 Clear with Mist and Fog 56 13.3 56 13.3 100 100 Calm 29.97 1015 4 6 0.00 0.00
5:53 am 05:53 Clear with Mist and Fog 56 13.3 56 13.3 100 100 Calm 29.98 1015 4 6 0.00 0.00
6:36 am 06:36 Sunny with Mist and Fog 56 13.3 56 13.3 100 100 Calm 30.00 1016 2 3 0.00 0.00
6:45 am 06:45 Sunny 57 13.9 57 13.9 100 100 Calm 30.00 1016 7 11 0.00 0.00
6:53 am 06:53 Sunny 57 13.9 57 13.9 100 100 Calm 29.98 1015 10 16 0.00 0.00
7:53 am 07:53 Sunny 61 16.1 60 15.6 97 97 Calm 29.98 1015 7 11 0.00 0.00
8:53 am 08:53 Sunny 67 19.4 62 16.7 84 84 Calm 29.98 1015 10 16 0.00 0.00
9:53 am 09:53 Sunny 74 23.3 64 17.8 71 71 Calm 29.97 1015 10 16 0.00 0.00
10:53 am 10:53 Sunny 79 26.1 62 16.7 56 56 S 6 9 29.95 1014 10 16 0.00 0.00
11:53 am 11:53 Sunny 82 27.8 62 16.7 51 51 SW 6 9 29.93 1014 10 16 0.00 0.00
12:53 pm 12:53 Sunny 83 28.3 60 15.6 46 46 SSW 7 11 29.91 1013 10 16 0.00 0.00
1:53 pm 13:53 Sunny 84 28.9 62 16.7 48 48 S 8 13 29.89 1012 10 16 0.00 0.00
2:53 pm 14:53 Sunny 84 28.9 62 16.7 48 48 S 8 13 29.87 1012 10 16 0.00 0.00
3:53 pm 15:53 Sunny 86 30 61 16.1 43 43 WSW 7 11 29.84 1011 10 16 0.00 0.00
4:53 pm 16:53 Sunny 86 30 64 17.8 48 48 WSW 7 11 29.81 1010 10 16 0.00 0.00
5:53 pm 17:53 Mostly Sunny 82 27.8 65 18.3 56 56 SSW 7 11 29.81 1009 10 16 0.00 0.00
6:53 pm 18:53 Mostly Sunny 81 27.2 65 18.3 58 58 SSW 9 15 29.80 1009 10 16 0.00 0.00
7:53 pm 19:53 Sunny 78 25.6 67 19.4 69 69 S 6 9 29.82 1010 10 16 0.00 0.00
8:53 pm 20:53 Sunny 75 23.9 66 18.9 74 74 S 5 7 29.81 1010 10 16 0.00 0.00
9:53 pm 21:53 Clear 71 21.7 65 18.3 81 81 SSW 3 6 29.81 1010 10 16 0.00 0.00
10:53 pm 22:53 Clear 71 21.7 65 18.3 81 81 Calm 29.82 1010 10 16 0.00 0.00
11:53 pm 23:53 Clear 68 20 65 18.3 90 90 Calm 29.81 1010 10 16 0.00 0.00

Powered by AerisWeather